Location: Cahas Mountain Overlook
(37.0833°N, 80.1000°W)
Time: 22:18:57
(UTC-04:00)

Transit 2A - Visible Passes

Search period start: 17 August 2022 00:00
Search period end: 27 August 2022 00:00
Orbit: 601 x 956 km, 66.7° (Epoch: 16 August)

Date Brightness Start Highest point End Pass type
(mag) Time Alt. Az. Time Alt. Az. Time Alt. Az.
17 Aug 8.3 21:51:24 10° WNW 21:53:55 15° WSW 21:56:32 10° SW visible
18 Aug 7.8 21:16:08 10° WNW 21:19:43 24° WSW 21:23:29 10° SSW visible
19 Aug 7.1 20:41:20 10° NW 20:45:28 37° WSW 20:49:52 10° S visible
22 Aug 8.6 20:42:51 10° WNW 20:45:13 14° WSW 20:47:38 10° SW visible
